TimeHST,TemperatureF,Dew PointF,Humidity,Sea Level PressureIn,VisibilityMPH,Wind Direction,Wind SpeedMPH,Gust SpeedMPH,PrecipitationIn,Events,Conditions,WindDirDegrees,DateUTC
12:53 AM,69.1,66.0,90,30.06,4.0,SSW,4.6,-,0.00,Rain,Light Rain,210,2012-09-13 10:53:00
1:53 AM,68.0,64.0,87,30.04,10.0,WSW,5.8,-,0.01,,Overcast,240,2012-09-13 11:53:00
2:53 AM,71.1,66.0,84,30.03,10.0,NW,9.2,-,N/A,,Overcast,310,2012-09-13 12:53:00
3:40 AM,69.8,66.2,88,30.03,10.0,SE,5.8,-,0.00,Rain,Light Rain,140,2012-09-13 13:40:00
3:53 AM,69.1,66.0,90,30.03,7.0,SSE,4.6,-,0.00,Rain,Light Rain,150,2012-09-13 13:53:00
4:17 AM,68.0,66.2,94,30.05,2.5,SE,6.9,-,0.01,Rain,Rain,130,2012-09-13 14:17:00
4:31 AM,68.0,66.2,94,30.04,4.0,WNW,4.6,-,0.07,Rain,Light Rain,300,2012-09-13 14:31:00
4:53 AM,66.9,66.0,97,30.05,10.0,SW,3.5,-,0.07,,Overcast,220,2012-09-13 14:53:00
5:12 AM,68.0,66.2,94,30.06,3.0,Calm,Calm,-,0.02,Rain,Light Rain,0,2012-09-13 15:12:00
5:24 AM,68.0,66.2,94,30.06,5.0,WSW,6.9,-,0.03,Rain,Light Rain,240,2012-09-13 15:24:00
5:53 AM,68.0,66.0,93,30.05,10.0,WSW,6.9,-,0.03,,Mostly Cloudy,240,2012-09-13 15:53:00
6:53 AM,70.0,66.0,87,30.07,10.0,WSW,6.9,-,N/A,,Mostly Cloudy,250,2012-09-13 16:53:00
7:53 AM,73.0,66.9,81,30.07,10.0,Calm,Calm,-,N/A,,Mostly Cloudy,0,2012-09-13 17:53:00
8:53 AM,77.0,66.9,71,30.08,10.0,Calm,Calm,-,0.00,,Mostly Cloudy,0,2012-09-13 18:53:00
9:32 AM,75.2,66.2,73,30.08,10.0,WNW,4.6,-,0.00,,Mostly Cloudy,290,2012-09-13 19:32:00
9:39 AM,75.2,68.0,78,30.08,10.0,West,6.9,-,0.00,,Mostly Cloudy,280,2012-09-13 19:39:00
9:53 AM,75.9,68.0,76,30.07,10.0,West,8.1,-,0.00,,Mostly Cloudy,280,2012-09-13 19:53:00
10:53 AM,80.1,66.0,62,30.06,10.0,NNW,5.8,-,N/A,,Scattered Clouds,340,2012-09-13 20:53:00
11:53 AM,75.0,70.0,84,30.07,7.0,East,12.7,-,0.00,Rain,Light Rain,80,2012-09-13 21:53:00
12:00 PM,73.4,69.8,88,30.07,6.0,East,8.1,-,0.00,Rain,Light Rain,80,2012-09-13 22:00:00
12:53 PM,75.9,68.0,76,30.04,10.0,WNW,6.9,-,0.01,,Mostly Cloudy,300,2012-09-13 22:53:00
1:53 PM,80.1,66.0,62,30.01,10.0,NW,5.8,-,N/A,,Mostly Cloudy,320,2012-09-13 23:53:00
2:53 PM,79.0,66.0,64,30.00,10.0,Calm,Calm,-,N/A,,Mostly Cloudy,0,2012-09-14 00:53:00
3:53 PM,79.0,66.0,64,30.00,10.0,Variable,3.5,-,N/A,,Mostly Cloudy,0,2012-09-14 01:53:00
4:53 PM,77.0,66.0,69,30.01,10.0,Calm,Calm,-,N/A,,Mostly Cloudy,0,2012-09-14 02:53:00
5:53 PM,77.0,64.9,66,30.01,10.0,ESE,3.5,-,N/A,,Overcast,110,2012-09-14 03:53:00
6:53 PM,73.9,66.0,76,30.04,10.0,SW,4.6,-,N/A,,Overcast,220,2012-09-14 04:53:00
7:53 PM,71.1,63.0,75,30.06,10.0,SW,3.5,-,N/A,,Clear,220,2012-09-14 05:53:00
8:49 PM,69.8,66.2,88,30.08,4.0,Calm,Calm,-,0.02,Rain,Rain,0,2012-09-14 06:49:00
8:53 PM,70.0,66.9,90,30.08,5.0,SW,3.5,-,0.03,Rain,Light Rain,220,2012-09-14 06:53:00
9:04 PM,69.8,66.2,88,30.08,10.0,WSW,5.8,-,0.00,Rain,Light Rain,240,2012-09-14 07:04:00
9:53 PM,69.1,64.0,84,30.09,10.0,West,9.2,-,0.00,,Overcast,260,2012-09-14 07:53:00
10:53 PM,69.1,63.0,81,30.09,10.0,SW,5.8,-,N/A,,Scattered Clouds,230,2012-09-14 08:53:00
11:53 PM,69.1,63.0,81,30.07,10.0,WSW,6.9,-,N/A,,Mostly Cloudy,240,2012-09-14 09:53:00